Location: Roc des P�zouls
(43.9667°N, 3.5500°E)
Time: 07:40:09
(UTC+00:00)

Cosmos 2322 Rocket - Pass Details

Date: 14 November 2019
Orbit: 832 x 851 km, 71.0° (Epoch: 08 December)

Event Time Altitude Azimuth Distance (km) Brightness Sun altitude
Exits shadow 05:43:27 - 334° (NNW) 3,423 5.0 -10.2°
Rises 05:43:30 0° 334° (NNW) 3,403 5.0 -10.2°
Reaches altitude 10° 05:45:57 10° 333° (NNW) 2,467 4.2 -9.7°
Maximum altitude 05:51:37 83° 247° (WSW) 856 2.2 -8.8°
Drops below altitude 10° 05:57:17 10° 160° (SSE) 2,463 5.2 -7.8°
Sets 05:59:43 0° 159° (SSE) 3,397 6.0 -7.4°
